Find Starlink 4021

NORAD ID: 53149 Int'l Des: 2022-083 Owner: SPXS Country: US Constellation: starlink operational
LEOCIRCULAR

Live-Position

3D-Globus wird geladen...

Über Starlink 4021

Beschreibung wird geladen...

Nächste Überflüge

Passes for default location (London). Set your location on the main map for personalized predictions.

Höhenverlauf

Loading altitude history...

Zweizeiliger Elementsatz

1 53149U 22083T 26127.08192458 -.00000728 00000-0 -27647-4 0 9991
2 53149 53.2198 262.1899 0001477 91.7589 268.3572 15.08827364210175
Epoch: 7. Mai 2026 • Age: 8 hours

Aktueller Status

Höhe 554.8 km
Geschwindigkeit 7.58 km/s
Subsatellitenpunkt -42.32°S, 152.05°W
Startdatum 17. Juli 2022
Alter 3.8 years
Typ internet

Technische Details

Klassifizierung Payload
Masse 297.00 kg
Trockenmasse 275.00 kg
Gesamtmasse 297.00 kg
Länge 0.20 m
Durchmesser 2.80 m
Spannweite 9.00 m
Form Box + pan
Hersteller SPXS
Bus-Typ Starlink
Phasenstatus In Orbit
Besitzer/Staat SPXS/US

Most Searched